Location: Penton Mewsey
(51.2167°N, 1.5167°W)
Time: 18:03:10
(UTC+00:00)

Envisat - Pass Details

Date: 05 March 2021
Orbit: 764 x 766 km, 98.1° (Epoch: 21 April)

Event Time Altitude Azimuth Distance (km) Brightness Sun altitude
Rises 05:22:22 0° 18° (NNE) 3,247 6.6 -13.3°
Reaches altitude 10° 05:24:48 10° 25° (NNE) 2,316 5.9 -12.9°
Maximum altitude 05:29:40 44° 98° (E) 1,051 4.3 -12.1°
Drops below altitude 10° 05:34:31 10° 170° (S) 2,298 5.5 -11.4°
Sets 05:36:54 0° 177° (S) 3,219 6.2 -11.0°
